Location: Unspecified
(0.0000°N, 0.0000°E)
Time: 16:20:05
(UTC+00:00)

Courier 1B Rocket - Pass Details

Date: 20 November 2019
Orbit: 920 x 1202 km, 28.2° (Epoch: 12 December)

Event Time Altitude Azimuth Distance (km) Brightness Sun altitude
Rises 21:01:23 0° 312° (NW) 4,077 8.4 -45.2°
Enters shadow 21:03:05 - 314° (NW) 3,533 8.0 -45.6°
Reaches altitude 10° 21:04:22 10° 317° (NW) 3,123 - -45.8°
Maximum altitude 21:11:49 47° 29° (NNE) 1,538 - -47.5°
Drops below altitude 10° 21:19:06 10° 101° (E) 3,063 - -49.0°
Sets 21:21:59 0° 106° (ESE) 3,994 - -49.7°
